sat.trackr.live / text

‹ back to catalog

STARLINK-3822

NORAD 52287 · 2022-041AC

PAYLOAD ACTIVE UNKNOWN

§ Identity

Operator
Country
US
Launch date
2022-04-21
Launch site
AFETR
Launch vehicle
Mass (kg)
RCS (m²)

Purposes: comms

External: N2YO · Heavens-Above · Gunter

§ Orbital elements

Epoch: 2026-09-19T18:16:19.863264Z

Period
94.01 min
Inclination
53.1595°
Eccentricity
0.0001060
Mean motion
15.31698718 rev/d
Perigee alt
470.0 km
Apogee alt
471.5 km
Semi-major
6,848.9 km
B*
9.4774e-6
RAAN
304.8957°
Arg perigee
64.2394°
Mean anomaly
295.8717°
Rev number
24,384

§ Raw data

STARLINK-38221 52287U 22041AC  26262.76134101 -.00000071  00000+0  94774-5 0  99982 52287  53.1595 304.8957 0001060  64.2394 295.8717 15.31698718243844

JSON: /api/v1/satellites/52287 · /tle

For live sub-satellite position, see the globe view (requires WebGL).

§ Visibility from observer

Set your observer location to see the next 7 days of passes ≥ 10°. The values pass through the URL so the page stays shareable.

No JS? Fill the form by hand. The geolocation button needs JavaScript.